Zurück zum Katalog

STARLINK-36922

AktivKommunikationSSO
NORAD 68123·PAYLOAD·🇺🇸 United States

Gestartet Mar 8, 2026 von Vandenberg Space Force Base

Loading…

Nächste Überflüge (nächste 24 Stunden)

TLE

AktuellSource: CelesTrak SupGP

Epoche: Sep 15, 2026, 02:58 UTC

1 68123C 26044Y   26258.12409722 -.00005574  00000+0 -17310-3 0  2581
2 68123  97.2851 217.2180 0001852  95.6000  71.9857 15.33430086    12

Verfolge STARLINK-36922 in Echtzeit mit AllMySat

Download on the App Store